Regional Weather Roundup
Issued by NWS

Home | Current Version | Previous Version | Graphics & Text | Print | Product List | Glossary On
Versions: 1 2 3 4 5 6 7 8 9 10 11 12 13 14 15 16 17 18 19 20 21 22 23 24 25 26 27 28 29 30 31 32 33 34 35 36 37 38 39 40 41 42 43 44 45 46 47 48 49 50
000
ASUS43 KIND 112359
RWRIN

WEATHER ROUNDUP FOR INDIANA
NATIONAL WEATHER SERVICE INDIANAPOLIS IN
800 PM EDT FRI JUL 11 2014

NOTE: "FAIR" INDICATES FEW OR NO CLOUDS BELOW 12,000 FEET WITH NO
SIGNIFICANT WEATHER AND/OR OBSTRUCTIONS TO VISIBILITY.

* - STATION DOES NOT REPORT WEATHER SUCH AS PRECIPITATION OR FOG.

+ - STATION NOT QUALITY CONTROLLED BY THE NATIONAL WEATHER SERVICE.
    USE DATA WITH CAUTION...ESPECIALLY DEWPOINT AND RELATIVE
    HUMIDITY OBSERVATIONS.

INZ001>003-010>013-019-020-120100-
NORTHWEST INDIANA

CITY           SKY/WX    TMP DP  RH WIND       PRES   REMARKS
GARY /AIRPORT/ CLOUDY    77  57  50 SE5       30.12S
RENSSELAER +   CLOUDY    75  61  60 S3        30.14S
VALPARAISO     LGT RAIN  74  60  61 S3        30.14S
6HR MIN TEMP:  74; 6HR MAX TEMP:  80; 6HR PCP: TRACE;


$$

LMZ046-743>745-120100-
SOUTHERN LAKE MICHIGAN

STATION/POSITION TIME  TEMP WIND        PRES
                       AIR  DIR/SP/G
                 (UTC) (F)  (DEG/KT/KT) (MB)
BURNS HARBOR     2300   76  190/ 11/ 14 1020.0
MICHIGAN CITY    2300   77  160/  9/ 12   N/A

$$

INZ004-005-014>016-021>024-120100-
NORTH CENTRAL INDIANA

CITY           SKY/WX    TMP DP  RH WIND       PRES   REMARKS
GOSHEN         CLOUDY    76  60  57 S5        30.14F
6HR MIN TEMP:  76; 6HR MAX TEMP:  82;

SOUTH BEND     LGT RAIN  75  61  61 S7        30.14S
6HR MIN TEMP:  75; 6HR MAX TEMP:  82; 6HR PCP: TRACE;


$$

INZ006>009-017-018-025>027-120100-
NORTHEAST INDIANA

CITY           SKY/WX    TMP DP  RH WIND       PRES   REMARKS
ANGOLA *+      SUNNY     75  61  60 CALM      30.16R
FORT WAYNE     CLOUDY    79  56  45 W5        30.16R
6HR MIN TEMP:  78; 6HR MAX TEMP:  82;


$$

INZ028-029-035-036-043>045-051>053-120100-
WEST CENTRAL INDIANA

CITY           SKY/WX    TMP DP  RH WIND       PRES   REMARKS
GREENCASTLE +  SUNNY     77  63  61 CALM      30.15F
LAFAYETTE      MOSUNNY   78  59  51 CALM      30.14R
6HR MIN TEMP:  78; 6HR MAX TEMP:  82;

TERRE HAUTE    SUNNY     80  62  54 S3        30.13F
6HR MIN TEMP:  80; 6HR MAX TEMP:  83;


$$

INZ030>032-037>040-046>048-054>057-064-065-120100-
CENTRAL INDIANA

CITY           SKY/WX    TMP DP  RH WIND       PRES   REMARKS
INDIANAPOLIS   MOSUNNY   78  58  49 SW7       30.15R
6HR MIN TEMP:  77; 6HR MAX TEMP:  81;

-EAGLE CREEK   MOSUNNY   80  56  43 SW5       30.15R
6HR MIN TEMP:  78; 6HR MAX TEMP:  82;

KOKOMO *+      PTSUNNY   77  63  61 SE3       30.15S
MT COMFORT *+  MOSUNNY   79  61  53 CALM      30.16S
SHELBYVILLE    MOSUNNY   81  59  47 CALM      30.15S
6HR MIN TEMP:  81; 6HR MAX TEMP:  85;


$$

INZ033-034-041-042-049-050-058-059-120100-
EAST CENTRAL INDIANA

CITY           SKY/WX    TMP DP  RH WIND       PRES   REMARKS
MUNCIE         PTSUNNY   79  55  43 W7        30.16R
6HR MIN TEMP:  78; 6HR MAX TEMP:  81;


$$

INZ060-061-067>069-081>083-085>088-120100-
SOUTHWEST INDIANA

CITY           SKY/WX    TMP DP  RH WIND       PRES   REMARKS
EVANSVILLE     SUNNY     86  58  38 W5        30.13S
6HR MIN TEMP:  84; 6HR MAX TEMP:  89;

HUNTINGBURG *+ SUNNY     84  61  45 CALM      30.13S
6HR MIN TEMP:  81; 6HR MAX TEMP:  86;


$$

INZ062-063-066-070>080-084-089>092-120100-
SOUTH CENTRAL AND SOUTHEAST INDIANA

CITY           SKY/WX    TMP DP  RH WIND       PRES   REMARKS
BLOOMINGTON    SUNNY     79  61  53 SW3       30.15S
6HR MIN TEMP:  79; 6HR MAX TEMP:  84;


$$



USA.gov is the U.S. government's official web portal to all federal, state and local government web resources and services.